QPF
0.02 0.01 0.00 0.00 0.00 0.00 0.00 0.00 0.00 0.00 0.00 0.00 0.00 0.00 0.00 0.00 0.00 0.00 0.00 0.00 0.00 0.00 0.00 0.00 0.00 0.00 0.00 0.00 0.00 0.00 0.00 0.00
0.01 0.01 0.00 0.00 0.00 0.00 0.00 0.00 0.00 0.00 0.00 0.00 0.00 0.00 0.00 0.00 0.00 0.00 0.00 0.00 0.00 0.00 0.00 0.00 0.00 0.00 0.00 0.00 0.00 0.00 0.00 0.00
0.01 0.00 0.00 0.00 0.00 0.00 0.00 0.00 0.00 0.00 0.00 0.00 0.00 0.00 0.00 0.00 0.00 0.00 0.00 0.00 0.00 0.00 0.00 0.00 0.00 0.00 0.00 0.00 0.00 0.00 0.00 0.00
0.01 0.00 0.00 0.00 0.00 0.00 0.00 0.00 0.00 0.00 0.00 0.00 0.00 0.00 0.00 0.00 0.00 0.00 0.00 0.00 0.00 0.00 0.00 0.00 0.00 0.00 0.00 0.00 0.00 0.00 0.00 0.00
0.00 0.00 0.00 0.00 0.00 0.00 0.00 0.00 0.00 0.00 0.00 0.00 0.00 0.00 0.00 0.00 0.00 0.00 0.00 0.00 0.00 0.00 0.00 0.00 0.00 0.00 0.00 0.00 0.00 0.00 0.00 0.00
0.00 0.00 0.00 0.00 0.00 0.00 0.00 0.00 0.00 0.00 0.00 0.00 0.00 0.00 0.00 0.00 0.00 0.00 0.00 0.00 0.00 0.00 0.00 0.00 0.00 0.00 0.00 0.00 0.00 0.00 0.00 0.00
0.00 0.00 0.00 0.00 0.00 0.00 0.00 0.00 0.00 0.00 0.00 0.00 0.00 0.00 0.00 0.00 0.00 0.00 0.00 0.00 0.00 0.00 0.00 0.00 0.00 0.00 0.00 0.00 0.00 0.00 0.00 0.00
0.00 0.00 0.00 0.00 0.00 0.00 0.00 0.00 0.00 0.00 0.00 0.00 0.00 0.00 0.00 0.00 0.00 0.00 0.00 0.00 0.00 0.00 0.00 0.00 0.00 0.00 0.00 0.00 0.00 0.00 0.00 0.00
0.00 0.00 0.00 0.00 0.00 0.00 0.00 0.00 0.00 0.00 0.00 0.00 0.00 0.00 0.00 0.00 0.00 0.00 0.00 0.00 0.00 0.00 0.00 0.00 0.00 0.00 0.00 0.00 0.00 0.00 0.00 0.00
0.00 0.00 0.00 0.00 0.00 0.00 0.00 0.00 0.00 0.00 0.00 0.00 0.00 0.00 0.00 0.00 0.00 0.00 0.00 0.00 0.00 0.00 0.00 0.00 0.00 0.00 0.00 0.00 0.00 0.00 0.00 0.00
0.00 0.00 0.00 0.00 0.00 0.00 0.00 0.00 0.00 0.00 0.00 0.00 0.00 0.00 0.00 0.00 0.00 0.00 0.00 0.00 0.00 0.00 0.00 0.00 0.00 0.00 0.00 0.00 0.00 0.00 0.00 0.00
0.00 0.00 0.00 0.00 0.00 0.00 0.00 0.00 0.00 0.00 0.00 0.00 0.00 0.00 0.00 0.00 0.00 0.00 0.00 0.00 0.00 0.00 0.00 0.00 0.00 0.00 0.00 0.00 0.00 0.00 0.00 0.00
0.00 0.00 0.00 0.00 0.00 0.00 0.00 0.00 0.00 0.00 0.00 0.00 0.00 0.00 0.00 0.00 0.00 0.00 0.00 0.00 0.00 0.00 0.00 0.00 0.00 0.00 0.00 0.00 0.00 0.00 0.00 0.00
0.00 0.00 0.00 0.00 0.00 0.00 0.00 0.00 0.00 0.00 0.00 0.00 0.00 0.00 0.00 0.00 0.00 0.00 0.00 0.00 0.00 0.00 0.01 0.00 0.00 0.00 0.00 0.00 0.00 0.00 0.00 0.00
0.00 0.00 0.00 0.00 0.00 0.00 0.00 0.00 0.00 0.00 0.00 0.00 0.00 0.00 0.00 0.00 0.00 0.00 0.00 0.01 0.01 0.00 0.00 0.00 0.00 0.00 0.00 0.00 0.00 0.00 0.00 0.00
0.00 0.00 0.00 0.00 0.00 0.00 0.00 0.00 0.00 0.00 0.00 0.00 0.00 0.00 0.00 0.00 0.00 0.00 0.01 0.01 0.00 0.00 0.00 0.00 0.00 0.00 0.00 0.00 0.00 0.00 0.00 0.00
0.00 0.00 0.00 0.00 0.00 0.00 0.00 0.00 0.00 0.00 0.00 0.00 0.00 0.00 0.00 0.00 0.00 0.00 0.01 0.00 0.00 0.00 0.00 0.00 0.00 0.00 0.00 0.00 0.00 0.00 0.00 0.00
0.00 0.00 0.00 0.00 0.00 0.00 0.00 0.00 0.00 0.00 0.00 0.00 0.00 0.00 0.00 0.00 0.00 0.00 0.01 0.01 0.00 0.00 0.00 0.00 0.00 0.00 0.00 0.00 0.00 0.00 0.00 0.00
0.00 0.00 0.00 0.00 0.00 0.00 0.00 0.00 0.00 0.00 0.00 0.00 0.00 0.00 0.00 0.00 0.00 0.01 0.01 0.00 0.00 0.00 0.00 0.00 0.00 0.00 0.00 0.00 0.00 0.00 0.00 0.00
MSLP
1018.58 1019.61 1018.44 1019.10 1018.79 1019.49 1020.07 1020.27 1020.38 1020.52 1020.50 1020.40 1020.29 1020.21 1020.05 1020.10 1020.06 1019.87 1019.73 1019.68 1019.77 1020.03 1020.32 1020.70 1020.98 1021.35 1021.72 1022.02 1022.32 1022.36 1022.33 1022.48
1019.24 1020.61 1019.84 1019.96 1019.90 1020.08 1020.25 1020.39 1020.43 1020.40 1020.50 1020.64 1020.63 1020.37 1020.04 1020.07 1019.80 1019.67 1019.63 1019.58 1019.58 1019.78 1020.04 1020.27 1020.51 1020.90 1021.17 1021.52 1021.81 1022.15 1022.33 1022.20
1020.30 1020.40 1020.75 1020.10 1020.27 1020.39 1020.45 1020.55 1020.28 1020.21 1020.17 1020.05 1019.92 1019.77 1019.75 1019.63 1019.45 1019.33 1019.25 1019.17 1019.07 1019.12 1019.27 1019.64 1019.85 1020.31 1020.67 1021.07 1021.44 1021.86 1021.96 1021.98
1020.44 1020.42 1020.50 1020.45 1020.32 1020.00 1020.32 1020.20 1019.91 1019.78 1019.68 1019.61 1019.45 1019.27 1019.24 1019.22 1019.07 1019.06 1018.85 1018.77 1018.82 1018.86 1018.97 1019.21 1019.34 1019.63 1020.01 1020.34 1020.72 1021.36 1021.74 1021.69
1020.05 1020.15 1020.15 1020.10 1020.00 1019.84 1019.85 1019.75 1019.54 1019.51 1019.51 1019.56 1019.58 1019.64 1019.66 1019.37 1019.11 1018.99 1018.84 1018.57 1018.58 1018.66 1018.71 1018.67 1018.79 1018.90 1019.26 1019.48 1019.77 1020.27 1021.05 1021.52
1019.76 1019.73 1019.62 1019.64 1019.71 1019.81 1019.84 1019.68 1019.51 1019.48 1019.43 1019.43 1019.54 1019.56 1019.38 1018.98 1018.86 1018.71 1018.57 1018.30 1018.13 1018.08 1018.17 1018.22 1018.45 1018.29 1018.36 1018.58 1018.96 1019.40 1019.91 1020.61
1019.49 1019.52 1019.48 1019.67 1019.76 1019.78 1019.63 1019.57 1019.47 1019.24 1019.18 1019.05 1019.04 1019.14 1019.06 1018.95 1018.76 1018.64 1018.29 1018.04 1018.00 1018.44 1018.53 1018.74 1018.83 1018.87 1018.89 1018.25 1017.96 1018.42 1018.93 1019.55
1019.93 1019.76 1019.70 1019.79 1019.64 1019.61 1019.58 1019.45 1019.32 1019.04 1018.91 1018.83 1018.68 1018.57 1018.48 1018.45 1018.38 1018.37 1018.37 1018.25 1018.37 1018.51 1018.46 1018.56 1018.67 1018.85 1019.07 1018.93 1018.60 1017.83 1018.13 1018.72
1020.14 1019.88 1019.85 1019.80 1019.61 1019.57 1019.44 1019.28 1019.11 1018.85 1018.63 1018.41 1018.27 1018.16 1018.13 1018.00 1017.96 1018.20 1018.45 1018.54 1018.59 1018.47 1018.31 1018.30 1018.36 1018.36 1018.60 1018.93 1018.74 1018.35 1017.74 1017.90
1020.16 1019.99 1020.00 1019.95 1019.76 1019.51 1019.32 1019.10 1018.88 1018.66 1018.58 1018.47 1018.50 1018.59 1018.65 1018.51 1018.32 1018.20 1018.02 1017.92 1017.97 1017.99 1017.90 1017.66 1017.70 1017.97 1018.07 1018.20 1018.38 1018.47 1017.77 1017.64
1020.28 1020.18 1020.03 1019.81 1019.56 1019.43 1019.25 1019.04 1018.90 1018.70 1018.74 1018.74 1018.69 1018.56 1018.45 1018.32 1018.17 1017.89 1017.72 1017.56 1017.42 1017.35 1017.28 1017.17 1017.23 1017.41 1017.44 1017.66 1017.53 1017.78 1017.82 1017.33
1020.43 1020.20 1019.99 1019.76 1019.52 1019.34 1019.18 1018.94 1018.67 1018.83 1018.73 1018.49 1018.44 1018.36 1018.35 1018.23 1017.95 1017.59 1017.30 1017.05 1016.84 1016.71 1016.63 1016.56 1016.55 1016.60 1016.84 1017.08 1017.10 1017.04 1017.24 1017.47
1020.35 1020.13 1019.97 1019.82 1019.53 1019.22 1019.06 1018.84 1018.80 1018.78 1018.41 1018.52 1018.39 1018.37 1018.14 1017.82 1017.49 1017.14 1016.89 1016.61 1016.30 1016.03 1015.77 1015.63 1015.70 1015.84 1016.10 1016.42 1016.60 1016.68 1016.88 1017.35
1020.34 1020.10 1019.98 1019.76 1019.50 1019.28 1018.98 1018.86 1018.93 1018.71 1018.64 1018.65 1018.58 1018.40 1017.95 1017.59 1017.22 1016.80 1016.41 1016.06 1015.73 1015.47 1015.22 1015.02 1014.85 1014.84 1015.18 1015.56 1015.97 1016.33 1016.64 1017.02
1020.34 1020.19 1019.93 1019.67 1019.47 1019.17 1018.91 1019.20 1019.22 1019.06 1018.98 1018.80 1018.64 1018.25 1017.84 1017.44 1017.00 1016.54 1016.07 1015.58 1015.37 1015.08 1014.68 1014.32 1014.30 1014.23 1014.19 1014.71 1015.30 1015.80 1016.25 1016.67
1020.35 1020.14 1019.85 1019.61 1019.49 1019.21 1019.28 1019.50 1019.51 1019.31 1019.12 1018.83 1018.60 1018.25 1017.81 1017.39 1016.94 1016.38 1015.85 1015.55 1015.26 1014.80 1014.38 1014.00 1013.65 1013.51 1013.68 1013.86 1014.59 1015.22 1015.83 1016.41
1020.41 1020.01 1019.80 1019.79 1019.61 1019.44 1019.63 1019.65 1019.48 1019.27 1019.18 1018.97 1018.72 1018.38 1017.87 1017.36 1016.84 1016.24 1015.82 1015.52 1015.10 1014.74 1014.11 1013.68 1013.28 1012.99 1013.04 1013.51 1014.07 1014.80 1015.44 1016.17
1020.45 1020.09 1020.08 1019.96 1019.91 1019.70 1019.98 1019.95 1019.92 1019.57 1019.38 1019.21 1018.90 1018.40 1017.93 1017.38 1016.85 1016.36 1016.09 1015.76 1015.36 1014.93 1014.45 1013.86 1013.44 1012.98 1012.90 1013.42 1014.06 1014.69 1015.37 1015.96
1020.48 1020.28 1020.25 1020.18 1020.07 1019.99 1020.28 1020.30 1020.22 1019.90 1019.68 1019.39 1018.90 1018.48 1018.00 1017.60 1017.02 1016.80 1016.36 1016.05 1015.60 1015.27 1014.87 1014.38 1013.98 1013.76 1013.69 1013.95 1014.36 1014.78 1015.41 1015.98
Thickness
5572 5559 5569 5560 5561 5552 5543 5539 5536 5531 5527 5524 5522 5520 5518 5515 5513 5512 5509 5506 5503 5500 5496 5494 5491 5486 5480 5474 5472 5473 5476 5476
5562 5547 5552 5548 5547 5540 5535 5531 5528 5522 5517 5513 5510 5510 5510 5508 5505 5503 5498 5495 5492 5488 5486 5485 5484 5480 5476 5472 5468 5465 5465 5468
5548 5543 5535 5541 5537 5531 5525 5520 5519 5517 5513 5511 5509 5507 5504 5501 5497 5493 5490 5486 5485 5482 5481 5479 5476 5473 5469 5465 5462 5459 5460 5460
5544 5542 5538 5536 5533 5531 5522 5519 5517 5514 5510 5506 5503 5500 5496 5492 5488 5483 5481 5477 5473 5470 5468 5466 5465 5464 5462 5459 5456 5453 5451 5453
5545 5540 5537 5533 5527 5524 5519 5516 5512 5507 5502 5496 5490 5485 5481 5478 5475 5472 5469 5466 5463 5458 5455 5454 5454 5455 5455 5455 5453 5450 5447 5446
5543 5538 5536 5531 5525 5518 5512 5507 5502 5497 5491 5485 5479 5474 5469 5468 5464 5460 5458 5456 5453 5450 5446 5444 5441 5443 5445 5447 5446 5443 5442 5441
5541 5537 5530 5523 5515 5510 5505 5500 5495 5491 5484 5478 5471 5465 5459 5454 5450 5445 5442 5440 5437 5430 5426 5422 5420 5421 5423 5432 5438 5436 5436 5435
5528 5525 5520 5517 5512 5505 5500 5495 5489 5483 5476 5470 5463 5456 5450 5443 5438 5432 5428 5423 5417 5412 5409 5405 5402 5400 5401 5405 5413 5425 5426 5427
5522 5520 5516 5512 5508 5502 5495 5488 5481 5475 5469 5463 5457 5451 5444 5438 5430 5421 5412 5406 5400 5395 5392 5389 5386 5384 5383 5383 5390 5399 5410 5414
5521 5518 5513 5508 5502 5496 5488 5482 5476 5470 5463 5456 5448 5439 5430 5422 5415 5407 5400 5393 5386 5380 5376 5375 5372 5369 5369 5369 5371 5378 5390 5396
5520 5515 5511 5505 5499 5492 5484 5477 5471 5463 5455 5446 5438 5429 5418 5409 5400 5392 5385 5379 5374 5368 5364 5361 5358 5356 5355 5355 5360 5363 5370 5382
5518 5513 5509 5502 5496 5487 5480 5473 5467 5457 5448 5441 5430 5418 5407 5397 5389 5381 5375 5369 5364 5359 5355 5352 5349 5347 5345 5345 5347 5351 5357 5364
5517 5512 5507 5500 5492 5485 5477 5470 5461 5452 5444 5432 5420 5406 5395 5387 5378 5370 5363 5357 5353 5349 5347 5344 5341 5339 5338 5337 5338 5341 5345 5349
5517 5510 5503 5497 5489 5481 5475 5466 5456 5447 5436 5422 5408 5395 5386 5375 5367 5359 5352 5346 5341 5336 5334 5333 5333 5333 5331 5330 5331 5333 5336 5339
5515 5508 5501 5494 5487 5480 5473 5460 5449 5439 5426 5412 5397 5386 5376 5365 5356 5347 5339 5334 5328 5324 5323 5323 5322 5323 5325 5324 5324 5325 5327 5331
5516 5509 5501 5494 5486 5478 5469 5455 5443 5432 5418 5405 5391 5378 5366 5354 5343 5334 5327 5320 5315 5312 5311 5311 5312 5314 5315 5318 5317 5319 5322 5325
5516 5511 5504 5493 5485 5476 5464 5452 5441 5428 5414 5399 5383 5368 5356 5343 5332 5323 5314 5305 5299 5295 5296 5297 5299 5302 5306 5307 5307 5309 5313 5317
5516 5510 5500 5490 5479 5472 5458 5448 5435 5424 5409 5392 5376 5362 5347 5335 5322 5310 5297 5287 5280 5276 5274 5276 5280 5285 5290 5292 5294 5297 5301 5308
5516 5508 5498 5488 5478 5471 5457 5446 5432 5421 5406 5389 5374 5358 5343 5330 5319 5304 5291 5279 5272 5266 5263 5263 5265 5268 5273 5276 5279 5283 5288 5297